Home   Weather   Aarhus   Past weeks

Flag for Denmark Past Weather in Aarhus, Denmark — Yesterday and Last 2 Weeks

Now
48 °F

Passing clouds.


Feels Like: 42 °F
Forecast: 36 / 47 °F
Wind: 17 mph from Northwest

Location: Tirstrup

Current Time: Apr 23, 2017 at 2:08:10 pm

Latest Report: Apr 23, 2017 at 1:20 pm


Visibility: N/A

Pressure: 29.98 "Hg

Humidity: 37%

Dew Point: 23 °F

Location of AarhusLocation

Past Weather in Aarhus — Graph

°F

Aarhus Temperature Yesterday

Maximum temperature yesterday: 54 °F (at 2:50 pm)
Minimum temperature yesterday: 39 °F (at 12:20 am)
Average temperature yesterday: 45 °F

High & Low Weather Summary for the Past Weeks

 TemperatureHumidityPressure
High63 °F (Apr 9, 3:50 pm)100% (Apr 12, 12:50 am)30.63 "Hg (Apr 12, 12:50 am)
Low28 °F (Apr 19, 12:20 am)30% (Apr 22, 5:50 pm)29.53 "Hg (Apr 13, 2:20 am)
Average44 °F71%30.00 "Hg
* Reported Apr 8 12:20 pm — Apr 23 12:50 pm, Aarhus, Weather by CustomWeather, © 2017

Note: Actual official high and low records may vary slightly from our data, if they occured in-between our weather recording intervals... More about our weather records

Advertising

Aarhus Weather History for the Previous 24 Hours

Scroll right to see more
 ConditionsComfort  
Time TempWeatherWind HumidityBarometerVisibility
12:50 pm
Sun, Apr 23
46 °FScattered clouds.17 mph43%29.98 "HgN/A
12:20 pm46 °FScattered clouds.20 mph40%29.98 "HgN/A
11:50 am46 °FPartly sunny.20 mph43%29.98 "HgN/A
11:20 am46 °FPartly sunny.18 mph43%29.98 "HgN/A
10:50 am45 °FPartly sunny.21 mph46%29.98 "HgN/A
10:20 am45 °FPartly sunny.18 mph49%29.98 "HgN/A
9:50 am43 °FPartly sunny.20 mph57%29.98 "HgN/A
9:20 am43 °FPartly sunny.21 mph61%29.98 "HgN/A
8:50 am43 °FPartly sunny.15 mph66%29.95 "HgN/A
8:20 am43 °FPassing clouds.15 mph71%29.95 "HgN/A
7:50 am41 °FPassing clouds.14 mph76%29.95 "HgN/A
7:20 am39 °FPassing clouds.10 mph81%29.95 "HgN/A
6:50 am39 °FPassing clouds.12 mph81%29.95 "HgN/A
6:20 am37 °FChilly.12 mph87%29.95 "HgN/A
5:50 am37 °FChilly.13 mph87%29.95 "HgN/A
5:20 am37 °FChilly.13 mph87%29.95 "HgN/A
4:50 am37 °FChilly.14 mph87%29.95 "HgN/A
4:20 am37 °FChilly.15 mph87%29.95 "HgN/A
3:50 am39 °FChilly.15 mph81%29.95 "HgN/A
3:20 am39 °FChilly.15 mph81%29.95 "HgN/A
2:50 am39 °FChilly.15 mph81%29.95 "HgN/A
2:20 am39 °FChilly.15 mph81%29.95 "HgN/A
1:50 am39 °FChilly.15 mph81%29.95 "HgN/A
1:20 am39 °FChilly.14 mph81%29.95 "HgN/A
12:50 am39 °FChilly.14 mph81%29.95 "HgN/A
12:20 am41 °FQuite cool.13 mph76%29.95 "HgN/A
11:50 pm
Sat, Apr 22
41 °FQuite cool.13 mph76%29.95 "HgN/A
11:20 pm41 °FQuite cool.15 mph76%29.95 "HgN/A
10:50 pm41 °FQuite cool.14 mph76%29.95 "HgN/A
10:20 pm43 °FQuite cool.14 mph66%29.95 "HgN/A
9:50 pm43 °FQuite cool.14 mph66%29.95 "HgN/A
9:20 pm45 °FQuite cool.13 mph61%29.95 "HgN/A
8:50 pm46 °FCool.15 mph53%29.95 "HgN/A
8:20 pm46 °FCool.17 mph53%29.92 "HgN/A
7:50 pm48 °FPassing clouds.18 mph46%29.92 "HgN/A
7:20 pm50 °FLight rain. Partly sunny.20 mph40%29.92 "HgN/A
6:50 pm52 °FPassing clouds.17 mph32%29.92 "HgN/A
6:20 pm54 °FScattered clouds.15 mph30%29.92 "HgN/A
5:50 pm52 °FScattered clouds.12 mph30%29.92 "HgN/A
5:20 pm52 °FPassing clouds.10 mph32%29.92 "HgN/A
4:50 pm52 °FScattered clouds.12 mph32%29.92 "HgN/A
4:20 pm50 °FScattered clouds.9 mph37%29.92 "HgN/A
3:50 pm52 °FPartly sunny.10 mph38%29.92 "HgN/A
3:20 pm50 °FPartly sunny.10 mph40%29.92 "HgN/A
2:50 pm54 °FScattered clouds.14 mph38%29.92 "HgN/A
2:20 pm52 °FPartly sunny.13 mph41%29.92 "HgN/A
Weather by CustomWeather, © 2017

See weather overviewHow to use our weather pages